FW1589 Weather Reports


Display with metric or nautical units.
time (UTC)temp
F
wind
direction
speed
MPH
gust
MPH
rain 1hr
in
rain 24hr
in
rain mn
in
humidity
%
barometer
mb
20200712073038 58 115 0.0 2.0 0.00 0.00 0.00 83 1015.5
20200712072541 59 115 0.0 2.0 0.00 0.00 0.00 83 1015.5
20200712072035 59 115 0.0 1.0 0.00 0.00 0.00 83 1015.5
20200712071533 59 115 0.0 1.0 0.00 0.00 0.00 82 1015.5
20200712071027 59 115 0.0 3.0 0.00 0.00 0.00 82 1015.6
20200712070526 59 115 0.0 3.0 0.00 0.00 0.00 82 1015.6
20200712070028 59 112 0.0 2.0 0.00 0.00 0.00 82 1015.6
20200712065524 59 112 0.0 2.0 0.00 0.00 0.00 82 1015.8
20200712065024 59 112 0.0 2.0 0.00 0.00 0.00 82 1015.8
20200712064518 59 112 0.0 2.0 0.00 0.00 0.00 82 1015.7
20200712064017 59 112 0.0 2.0 0.00 0.00 0.00 82 1015.7
20200712063513 59 112 0.0 2.0 0.00 0.00 0.00 82 1015.8
20200712063020 59 112 0.0 2.0 0.00 0.00 0.00 82 1015.7
20200712062517 59 112 0.0 2.0 0.00 0.00 0.00 82 1015.7
20200712062016 60 111 0.0 0.0 0.00 0.00 0.00 82 1015.6
20200712061508 60 113 0.0 0.0 0.00 0.00 0.00 82 1015.7
20200712061008 60 113 0.0 0.0 0.00 0.00 0.00 82 1015.7
20200712060507 60 113 0.0 0.0 0.00 0.00 0.00 82 1015.8
20200712060010 60 113 0.0 0.0 0.00 0.00 0.00 82 1015.5
20200712055506 60 113 0.0 0.0 0.00 0.00 0.00 82 1015.5
20200712055003 60 113 0.0 0.0 0.00 0.00 0.00 82 1015.7
20200712054502 60 113 0.0 0.0 0.00 0.00 0.00 81 1015.5
20200712054006 60 113 0.0 0.0 0.00 0.00 0.00 81 1015.5
20200712053457 60 113 0.0 0.0 0.00 0.00 0.00 81 1015.5
20200712052958 60 113 0.0 1.0 0.00 0.00 0.00 81 1015.5
20200712052501 60 113 0.0 1.0 0.00 0.00 0.00 80 1015.5
20200712051958 60 113 0.0 1.0 0.00 0.00 0.00 80 1015.5
20200712051500 60 113 0.0 1.0 0.00 0.00 0.00 80 1015.5
20200712051000 61 113 0.0 2.0 0.00 0.00 0.00 79 1015.5
20200712050454 61 113 0.0 2.0 0.00 0.00 0.00 79 1015.5
20200712045954 61 72 0.0 1.0 0.00 0.00 0.00 79 1015.5
20200712045453 61 72 0.0 2.0 0.00 0.00 0.00 79 1015.6
20200712044955 61 72 1.0 3.0 0.00 0.00 0.00 79 1015.4
20200712044454 61 74 1.0 3.0 0.00 0.00 0.00 79 1015.5
20200712043955 61 32 1.0 4.0 0.00 0.00 0.00 79 1015.5
20200712043450 61 262 2.0 4.0 0.00 0.00 0.00 80 1015.5
20200712042949 61 314 1.0 4.0 0.00 0.00 0.00 80 1015.5
20200712042450 61 260 1.0 2.0 0.00 0.00 0.00 79 1015.5
20200712041956 61 155 1.0 3.0 0.00 0.00 0.00 79 1015.4
20200712041451 61 290 1.0 3.0 0.00 0.00 0.00 79 1015.3
20200712040951 61 256 0.0 2.0 0.00 0.00 0.00 78 1015.3
20200712040445 61 256 0.0 3.0 0.00 0.00 0.00 78 1015.3
20200712035945 62 256 0.0 3.0 0.00 0.00 0.00 78 1015.2
20200712035445 62 252 0.0 2.0 0.00 0.00 0.00 77 1015.2
20200712034946 62 252 0.0 2.0 0.00 0.00 0.00 77 1015.3
20200712034447 62 252 0.0 2.0 0.00 0.00 0.00 77 1015.2
20200712033947 62 252 1.0 2.0 0.00 0.00 0.00 76 1015.4
20200712033442 63 252 1.0 2.0 0.00 0.00 0.00 75 1015.4
20200712032943 63 252 0.0 2.0 0.00 0.00 0.00 75 1015.4
20200712032444 63 252 0.0 2.0 0.00 0.00 0.00 75 1015.5
20200712031941 64 252 1.0 4.0 0.00 0.00 0.00 75 1015.4
20200712031443 64 252 2.0 4.0 0.00 0.00 0.00 74 1015.5
20200712030943 64 252 1.0 4.0 0.00 0.00 0.00 73 1015.4
20200712030443 64 255 1.0 2.0 0.00 0.00 0.00 73 1015.4
20200712025939 65 255 1.0 3.0 0.00 0.00 0.00 72 1015.3
20200712025438 65 255 1.0 4.0 0.00 0.00 0.00 71 1015.4
20200712024940 66 255 1.0 4.0 0.00 0.00 0.00 71 1015.3
20200712024436 66 259 2.0 4.0 0.00 0.00 0.00 70 1015.3
20200712023935 67 259 2.0 4.0 0.00 0.00 0.00 69 1015.4
20200712023435 67 194 1.0 3.0 0.00 0.00 0.00 69 1015.4
20200712022934 67 194 1.0 3.0 0.00 0.00 0.00 69 1015.3
20200712022430 68 173 1.0 4.0 0.00 0.00 0.00 69 1015.3
20200712021930 68 171 1.0 4.0 0.00 0.00 0.00 68 1015.3
20200712021429 68 261 1.0 4.0 0.00 0.00 0.00 68 1015.3
20200712020929 68 261 1.0 4.0 0.00 0.00 0.00 68 1015.3
20200712020429 68 260 1.0 4.0 0.00 0.00 0.00 67 1015.3
20200712015929 69 260 2.0 4.0 0.00 0.00 0.00 66 1015.4
20200712015422 69 258 2.0 6.0 0.00 0.00 0.00 65 1015.4
20200712014921 69 266 2.0 6.0 0.00 0.00 0.00 65 1015.4
20200712014421 70 189 2.0 5.0 0.00 0.00 0.00 64 1015.4
20200712013923 70 168 2.0 5.0 0.00 0.00 0.00 63 1015.4
20200712013421 71 190 2.0 4.0 0.00 0.00 0.00 63 1015.4
20200712012920 71 188 1.0 4.0 0.00 0.00 0.00 63 1015.0
20200712012413 71 188 2.0 5.0 0.00 0.00 0.00 63 1015.2
20200712011913 71 188 2.0 5.0 0.00 0.00 0.00 64 1015.4
20200712011413 70 190 2.0 3.0 0.00 0.00 0.00 63 1015.3
20200712010915 70 219 1.0 3.0 0.00 0.00 0.00 64 1015.6
20200712010415 70 175 1.0 4.0 0.00 0.00 0.00 64 1015.6
20200712005915 70 180 2.0 6.0 0.00 0.00 0.00 64 1015.7
20200712005412 70 252 3.0 6.0 0.00 0.00 0.00 64 1015.7
20200712004912 71 255 2.0 6.0 0.00 0.00 0.00 64 1015.7
20200712004413 71 240 2.0 6.0 0.00 0.00 0.00 64 1015.7
20200712003911 71 267 2.0 6.0 0.00 0.00 0.00 63 1015.8
20200712003412 71 281 2.0 6.0 0.00 0.00 0.00 64 1015.8
20200712002912 70 290 2.0 6.0 0.00 0.00 0.00 64 1015.9
20200712002414 71 263 2.0 7.0 0.00 0.00 0.00 64 1015.9
20200712001910 71 263 2.0 7.0 0.00 0.00 0.00 64 1016.1
20200712001410 71 187 2.0 5.0 0.00 0.00 0.00 64 1016.1
20200712000910 71 212 3.0 6.0 0.00 0.00 0.00 63 1016.3
20200712000409 71 165 2.0 6.0 0.00 0.00 0.00 63 1016.3
20200711235910 71 192 2.0 8.0 0.00 0.00 0.00 63 1016.4
20200711235410 72 163 2.0 8.0 0.00 0.00 0.00 62 1016.4
20200711234910 72 202 3.0 6.0 0.00 0.00 0.00 62 1016.4
20200711234405 72 221 3.0 7.0 0.00 0.00 0.00 62 1016.4
20200711233904 72 178 2.0 7.0 0.00 0.00 0.00 61 1016.5
20200711233401 73 236 2.0 6.0 0.00 0.00 0.00 61 1016.5
20200711232858 72 199 3.0 6.0 0.00 0.00 0.00 60 1016.5
20200711232358 72 199 3.0 6.0 0.00 0.00 0.00 60 1016.6
20200711231853 72 182 3.0 6.0 0.00 0.00 0.00 60 1016.6
20200711231350 72 196 2.0 8.0 0.00 0.00 0.00 61 1016.6
20200711230848 72 229 3.0 9.0 0.00 0.00 0.00 61 1016.6
20200711230346 73 269 4.0 9.0 0.00 0.00 0.00 60 1016.6
20200711225846 73 205 3.0 6.0 0.00 0.00 0.00 59 1016.6
20200711225341 73 199 3.0 8.0 0.00 0.00 0.00 60 1016.6
20200711224842 72 173 3.0 8.0 0.00 0.00 0.00 61 1016.7
20200711224340 72 149 4.0 8.0 0.00 0.00 0.00 59 1016.8
20200711223841 72 158 4.0 8.0 0.00 0.00 0.00 60 1016.8
20200711223342 73 156 4.0 8.0 0.00 0.00 0.00 58 1016.9
20200711222841 74 169 3.0 8.0 0.00 0.00 0.00 60 1016.9
20200711222334 73 186 3.0 8.0 0.00 0.00 0.00 61 1016.8
20200711221836 74 198 3.0 7.0 0.00 0.00 0.00 61 1016.8
20200711221334 74 153 2.0 7.0 0.00 0.00 0.00 60 1016.9
20200711220834 74 261 3.0 8.0 0.00 0.00 0.00 63 1017.0
20200711220334 74 188 3.0 8.0 0.00 0.00 0.00 61 1017.1
20200711215834 73 253 3.0 7.0 0.00 0.00 0.00 62 1017.2
20200711215331 73 250 3.0 7.0 0.00 0.00 0.00 63 1017.1
20200711214834 73 265 3.0 7.0 0.00 0.00 0.00 63 1017.2
20200711214326 73 248 3.0 8.0 0.00 0.00 0.00 63 1017.2
20200711213828 73 287 3.0 8.0 0.00 0.00 0.00 63 1017.2
20200711213328 73 249 3.0 8.0 0.00 0.00 0.00 61 1017.1
20200711212829 73 250 3.0 7.0 0.00 0.00 0.00 60 1017.2
20200711212326 74 188 3.0 7.0 0.00 0.00 0.00 61 1017.3
20200711211824 74 180 3.0 7.0 0.00 0.00 0.00 61 1017.3
20200711211325 74 194 3.0 8.0 0.00 0.00 0.00 59 1017.2
20200711210825 74 282 3.0 8.0 0.00 0.00 0.00 59 1017.1
20200711210322 74 190 3.0 7.0 0.00 0.00 0.00 60 1017.1
20200711205822 74 236 3.0 7.0 0.00 0.00 0.00 61 1017.2
20200711205316 74 189 3.0 7.0 0.00 0.00 0.00 61 1017.2
20200711204815 74 191 3.0 6.0 0.00 0.00 0.00 61 1017.2
20200711204316 74 159 3.0 6.0 0.00 0.00 0.00 61 1017.3
20200711203819 74 177 2.0 6.0 0.00 0.00 0.00 62 1017.2
20200711203316 74 274 3.0 6.0 0.00 0.00 0.00 61 1017.2
20200711202817 74 178 2.0 6.0 0.00 0.00 0.00 62 1017.4
20200711202311 74 223 2.0 6.0 0.00 0.00 0.00 62 1017.5
20200711201812 74 205 2.0 6.0 0.00 0.00 0.00 62 1017.4
20200711201309 74 192 2.0 6.0 0.00 0.00 0.00 62 1017.4
20200711200811 74 161 2.0 5.0 0.00 0.00 0.00 62 1017.4
20200711200310 73 158 2.0 6.0 0.00 0.00 0.00 62 1017.4
20200711195810 73 178 2.0 6.0 0.00 0.00 0.00 63 1017.3
20200711195303 73 234 2.0 6.0 0.00 0.00 0.00 64 1017.3
20200711194801 73 246 2.0 6.0 0.00 0.00 0.00 64 1017.4
20200711194301 72 174 2.0 5.0 0.00 0.00 0.00 65 1017.4
20200711193758 71 214 3.0 6.0 0.00 0.00 0.00 66 1017.4
20200711193258 71 146 3.0 6.0 0.00 0.00 0.00 65 1017.3
20200711192751 71 180 3.0 8.0 0.00 0.00 0.00 65 1017.4
20200711192251 71 158 3.0 8.0 0.00 0.00 0.00 66 1017.4
20200711191748 72 169 3.0 6.0 0.00 0.00 0.00 65 1017.4
20200711191247 71 178 2.0 5.0 0.00 0.00 0.00 66 1017.5
20200711190745 71 215 3.0 7.0 0.00 0.00 0.00 67 1017.5
20200711190240 71 163 3.0 7.0 0.00 0.00 0.00 66 1017.4
20200711185737 71 141 3.0 6.0 0.00 0.00 0.00 66 1017.4
20200711185237 71 231 3.0 6.0 0.00 0.00 0.00 66 1017.6
20200711184736 71 198 2.0 5.0 0.00 0.00 0.00 67 1017.6
20200711184238 71 207 2.0 5.0 0.00 0.00 0.00 67 1017.7
20200711183738 71 190 2.0 5.0 0.00 0.00 0.00 66 1017.6
20200711183235 71 193 2.0 5.0 0.00 0.00 0.00 66 1017.5
20200711182735 71 200 2.0 4.0 0.00 0.00 0.00 67 1017.5
20200711182233 70 200 3.0 6.0 0.00 0.00 0.00 68 1017.5
20200711181732 70 140 3.0 6.0 0.00 0.00 0.00 69 1017.5
20200711181233 69 178 3.0 6.0 0.00 0.00 0.00 69 1017.4
20200711180733 69 187 2.0 6.0 0.00 0.00 0.00 69 1017.4
20200711180236 69 244 2.0 5.0 0.00 0.00 0.00 70 1017.4
20200711175736 69 182 2.0 5.0 0.00 0.00 0.00 71 1017.3
20200711175229 68 202 2.0 3.0 0.00 0.00 0.00 72 1017.3
20200711174723 67 222 2.0 6.0 0.00 0.00 0.00 74 1017.3
20200711174222 67 225 3.0 6.0 0.00 0.00 0.00 73 1017.2
20200711173712 66 167 2.0 5.0 0.00 0.00 0.00 74 1017.3
20200711173215 66 177 2.0 5.0 0.00 0.00 0.00 75 1017.3
20200711172713 65 164 2.0 5.0 0.00 0.00 0.00 77 1017.3
20200711172210 65 233 1.0 3.0 0.00 0.00 0.00 77 1017.3
20200711171711 64 240 2.0 4.0 0.00 0.00 0.00 77 1017.3
20200711171208 64 185 2.0 4.0 0.00 0.00 0.00 78 1017.3
20200711170709 64 176 2.0 4.0 0.00 0.00 0.00 79 1017.3
20200711170207 63 167 1.0 4.0 0.00 0.00 0.00 80 1017.3
20200711165708 63 202 2.0 4.0 0.00 0.00 0.00 80 1017.3
20200711165203 63 198 1.0 4.0 0.00 0.00 0.00 81 1017.3
20200711164703 62 194 1.0 4.0 0.00 0.00 0.00 82 1017.3
20200711164204 62 202 1.0 4.0 0.00 0.00 0.00 82 1017.2
20200711163703 62 163 1.0 4.0 0.00 0.00 0.00 83 1017.1
20200711163203 61 192 1.0 4.0 0.00 0.00 0.00 84 1017.1
20200711162704 60 224 1.0 4.0 0.00 0.00 0.00 85 1017.0
20200711162158 60 281 1.0 3.0 0.00 0.00 0.00 86 1016.9
20200711161658 60 259 1.0 4.0 0.00 0.00 0.00 86 1016.9
20200711161158 59 269 1.0 4.0 0.00 0.00 0.00 87 1016.9
20200711160659 59 194 1.0 3.0 0.00 0.00 0.00 88 1017.0
20200711160202 59 194 1.0 3.0 0.00 0.00 0.00 88 1016.9
20200711155702 59 194 1.0 4.0 0.00 0.00 0.00 89 1016.9
20200711155159 58 189 1.0 4.0 0.00 0.00 0.00 90 1016.9
20200711154658 58 201 1.0 3.0 0.00 0.00 0.00 91 1016.8
20200711154157 58 177 1.0 3.0 0.00 0.00 0.00 92 1016.8
20200711153657 57 174 1.0 4.0 0.00 0.00 0.00 92 1016.9
20200711153201 57 171 1.0 4.0 0.00 0.00 0.00 92 1016.8
20200711152656 57 194 1.0 3.0 0.00 0.00 0.00 92 1016.7
20200711152157 57 246 1.0 3.0 0.00 0.00 0.00 92 1016.7
20200711151658 56 223 1.0 3.0 0.00 0.00 0.00 93 1016.6
20200711151154 56 223 0.0 2.0 0.00 0.00 0.00 93 1016.7
20200711150655 56 323 0.0 1.0 0.00 0.00 0.00 93 1016.6
20200711150150 56 323 0.0 1.0 0.00 0.00 0.00 93 1016.6
20200711145650 56 28 0.0 0.0 0.00 0.00 0.00 93 1016.5
20200711145150 56 28 0.0 0.0 0.00 0.00 0.00 93 1016.5
20200711144654 55 28 0.0 0.0 0.00 0.00 0.00 93 1016.5
20200711144148 55 28 0.0 0.0 0.00 0.00 0.00 93 1016.5
20200711143648 55 28 0.0 0.0 0.00 0.00 0.00 93 1016.5
20200711143145 55 28 0.0 0.0 0.00 0.00 0.00 92 1016.5
20200711142642 55 28 0.0 0.0 0.00 0.00 0.00 92 1016.5
20200711142141 55 28 0.0 0.0 0.00 0.00 0.00 92 1016.5
20200711141642 55 28 0.0 0.0 0.00 0.00 0.00 92 1016.4
20200711141141 55 28 0.0 0.0 0.00 0.00 0.00 92 1016.4
20200711140638 55 28 0.0 0.0 0.00 0.00 0.00 92 1016.4
20200711140134 55 28 0.0 0.0 0.00 0.00 0.00 92 1016.3
20200711135636 55 28 0.0 0.0 0.00 0.00 0.00 92 1016.3
20200711135133 55 28 0.0 0.0 0.00 0.00 0.00 92 1016.2
20200711134635 55 28 0.0 0.0 0.00 0.00 0.00 92 1016.2
20200711134132 55 28 0.0 0.0 0.00 0.00 0.00 91 1016.2
20200711133634 55 28 0.0 0.0 0.00 0.00 0.00 91 1016.2
20200711133129 54 28 0.0 0.0 0.00 0.00 0.00 91 1016.2
20200711132626 54 28 0.0 0.0 0.00 0.00 0.00 91 1016.2
20200711132127 55 28 0.0 0.0 0.00 0.00 0.00 91 1016.1
20200711131626 55 28 0.0 0.0 0.00 0.00 0.00 91 1016.0
20200711131126 55 28 0.0 0.0 0.00 0.00 0.00 91 1016.0
20200711130628 55 28 0.0 0.0 0.00 0.00 0.00 90 1016.0
20200711130128 55 28 0.0 0.0 0.00 0.00 0.00 90 1016.0
20200711125621 55 28 0.0 0.0 0.00 0.00 0.00 90 1015.8
20200711125122 55 28 0.0 0.0 0.00 0.00 0.00 90 1015.8
20200711124618 55 28 0.0 0.0 0.00 0.00 0.00 89 1015.7
20200711124117 55 28 0.0 0.0 0.00 0.00 0.00 89 1015.6
20200711123615 55 28 0.0 0.0 0.00 0.00 0.00 90 1015.5
20200711123110 55 28 0.0 0.0 0.00 0.00 0.00 90 1015.6
20200711122610 55 28 0.0 0.0 0.00 0.00 0.00 90 1015.4
20200711122111 55 28 0.0 0.0 0.00 0.00 0.00 90 1015.5
20200711121615 55 28 0.0 0.0 0.00 0.00 0.00 90 1015.4
20200711121110 55 28 0.0 0.0 0.00 0.00 0.00 90 1015.4
20200711120609 55 28 0.0 0.0 0.00 0.00 0.00 89 1015.2
20200711120109 55 28 0.0 0.0 0.00 0.00 0.00 89 1015.3
20200711115607 55 28 0.0 0.0 0.00 0.00 0.00 89 1015.3
20200711115107 55 28 0.0 0.0 0.00 0.00 0.00 89 1015.3
20200711114609 55 28 0.0 0.0 0.00 0.00 0.00 89 1015.4
20200711114103 55 28 0.0 0.0 0.00 0.00 0.00 89 1015.4
20200711113604 55 28 0.0 0.0 0.00 0.00 0.00 89 1015.4
20200711113100 55 28 0.0 0.0 0.00 0.00 0.00 89 1015.4
20200711112603 55 28 0.0 0.0 0.00 0.00 0.00 89 1015.3
20200711112102 56 28 0.0 0.0 0.00 0.00 0.00 89 1015.3
20200711111600 56 28 0.0 0.0 0.00 0.00 0.00 89 1015.2
20200711111058 56 28 0.0 0.0 0.00 0.00 0.00 89 1015.3
20200711110559 56 28 0.0 0.0 0.00 0.00 0.00 89 1015.2
20200711110053 55 28 0.0 0.0 0.00 0.00 0.00 89 1015.3
20200711105549 55 28 0.0 0.0 0.00 0.00 0.00 89 1015.2
20200711105047 55 28 0.0 2.0 0.00 0.00 0.00 89 1015.0
20200711104545 56 28 0.0 2.0 0.00 0.00 0.00 89 1015.0
20200711104046 56 28 0.0 1.0 0.00 0.00 0.00 89 1015.0
20200711103540 56 28 0.0 2.0 0.00 0.00 0.00 89 1015.0
20200711103036 56 28 0.0 2.0 0.00 0.00 0.00 89 1015.0
20200711102537 56 28 0.0 2.0 0.00 0.00 0.00 89 1015.0
20200711102033 56 28 0.0 2.0 0.00 0.00 0.00 89 1015.0
20200711101535 56 28 0.0 0.0 0.00 0.00 0.00 89 1015.2
20200711101027 56 28 0.0 0.0 0.00 0.00 0.00 89 1015.0
20200711100524 56 28 0.0 0.0 0.00 0.00 0.00 88 1015.0
20200711100025 56 28 0.0 0.0 0.00 0.00 0.00 88 1015.2
20200711095521 56 28 0.0 0.0 0.00 0.00 0.00 88 1015.2
20200711095022 56 28 0.0 0.0 0.00 0.00 0.00 88 1015.2
20200711094519 56 28 0.0 0.0 0.00 0.00 0.00 88 1015.3
20200711094021 56 28 0.0 0.0 0.00 0.00 0.00 87 1015.3
20200711093514 56 28 0.0 0.0 0.00 0.00 0.00 87 1015.4
20200711093016 56 28 0.0 1.0 0.00 0.00 0.00 87 1015.4
20200711092515 56 28 0.0 1.0 0.00 0.00 0.00 88 1015.3
20200711091017 56 28 0.0 0.0 0.00 0.00 0.00 88 1015.5
20200711090508 56 28 0.0 0.0 0.00 0.00 0.00 88 1015.4
20200711090013 56 28 1.0 2.0 0.00 0.00 0.00 88 1015.5
20200711085510 56 28 1.0 3.0 0.00 0.00 0.00 89 1015.5
20200711085017 56 28 1.0 3.0 0.00 0.00 0.00 89 1015.5
20200711084507 56 135 0.0 0.0 0.00 0.00 0.00 89 1015.6
20200711084007 56 135 0.0 2.0 0.00 0.00 0.00 89 1015.7
20200711083506 56 140 0.0 2.0 0.00 0.00 0.00 89 1015.7
20200711083007 56 140 0.0 0.0 0.00 0.00 0.00 89 1015.7
20200711082504 56 140 0.0 2.0 0.00 0.00 0.00 89 1015.9
20200711082005 57 140 0.0 2.0 0.00 0.00 0.00 89 1015.9
20200711081500 57 140 0.0 1.0 0.00 0.00 0.00 89 1015.8
20200711081002 57 140 1.0 4.0 0.00 0.00 0.00 89 1015.9
20200711080457 57 142 1.0 4.0 0.00 0.00 0.00 89 1016.0
20200711075959 57 175 0.0 3.0 0.00 0.00 0.00 89 1015.9
20200711075456 57 178 0.0 0.0 0.00 0.00 0.00 89 1015.8
20200711075001 57 178 0.0 0.0 0.00 0.00 0.00 89 1015.8
20200711074451 57 178 0.0 0.0 0.00 0.00 0.00 89 1015.9
20200711073949 57 178 0.0 0.0 0.00 0.00 0.00 89 1015.9
20200711073447 57 178 0.0 0.0 0.00 0.00 0.00 89 1015.9